Regional Weather Roundup
Issued by NWS

Home | Current Version | Previous Version | Text Only | Print | Product List | Glossary Off
Versions: 1 2 3 4 5 6 7 8 9 10 11 12 13 14 15 16 17 18 19 20 21 22 23 24 25 26 27 28 29 30 31 32 33 34 35 36 37 38 39 40 41 42 43 44 45 46 47 48 49 50

000
ASUS45 KCYS 241110
RWRWY

WYOMING REGIONAL WEATHER ROUNDUP
NATIONAL WEATHER SERVICE CHEYENNE WY
500 AM MDT MON APR 24 2017

NOTE:  "FAIR" INDICATES FEW OR NO CLOUDS BELOW 12,000 FEET
WITH NO SIGNIFICANT WEATHER AND/OR OBSTRUCTIONS TO VISIBILITY.

WYZ001-241200-
YELLOWSTONE NATIONAL PARK

CITY           SKY/WX    TMP DP  RH WIND       PRES   REMARKS
LK YELLOWSTONE   N/A     26  26 100 CALM      29.76F
W YELLOWSTONE  NOT AVBL

$$
WYZ002>013-054>058-071-098>099-241200-
NORTHERN WYOMING

CITY           SKY/WX    TMP DP  RH WIND       PRES   REMARKS
JACKSON        MOCLDY    34  32  93 CALM      29.75F
CODY           MOCLDY    40  34  79 W8        29.71R WCI  34
GREYBULL       FAIR      42  36  79 SW3       29.67S
WORLAND        FAIR      39  37  92 SE7       29.68F WCI  34
SHERIDAN       FAIR      37  35  92 SW3       29.67F
BUFFALO        FAIR      40  34  79 NW7       29.67F
GILLETTE       FAIR      38  38 100 W9        29.65S WCI  31
HULETT         PTSUNNY   41  39  93 W5        29.65R
NEWCASTLE      FAIR      43  37  81 NW12      29.61S

$$
WYZ014>020-022>026-101>103-241200-
CENTRAL WYOMING

CITY           SKY/WX    TMP DP  RH WIND       PRES   REMARKS
BIG PINEY      FAIR      28  25  88 E6        29.79F WCI  22
PINEDALE       FAIR      32  27  80 CALM      29.81S
DUBOIS         FAIR      30  27  86 CALM      29.72F
LANDER         FAIR      43  24  47 W7        29.70S
RIVERTON       FAIR      40  30  67 W8        29.72R WCI  34
CASPER         FAIR      35  32  88 W6        29.72S WCI  30
DOUGLAS        FAIR      41  38  89 NW9       29.69R

$$
WYZ021-027>030-104>119-241200-
SOUTHERN WYOMING

CITY           SKY/WX    TMP DP  RH WIND       PRES   REMARKS
EVANSTON       FAIR      32  29  88 SW9       29.80F WCI  24
KEMMERER         N/A     30  28  93 NW8       29.80F WCI  23
ROCK SPRINGS   FAIR      37  32  82 SE3       29.81S
DIXON            N/A     38  35  90 NE6       29.87S WCI  33
RAWLINS        FAIR      37  33  85 W12       29.80S WCI  29
SARATOGA       PTSUNNY   39  34  81 E5G17     29.82S
LARAMIE        FAIR      36  33  89 W13       29.74F WCI  27
CHEYENNE       FAIR      44  35  70 NW13G21   29.71R
TORRINGTON     FAIR      54  37  52 W16       29.62F
PINE BLUFFS    FAIR      48  36  61 NW26G35   29.67F

$$



USA.gov is the U.S. government's official web portal to all federal, state and local government web resources and services.